Date,TemperatureHighF,TemperatureAvgF,TemperatureLowF,DewpointHighF,DewpointAvgF,DewpointLowF,HumidityHigh,HumidityAvg,HumidityLow,PressureMaxIn,PressureMinIn,WindSpeedMaxMPH,WindSpeedAvgMPH,GustSpeedMaxMPH,PrecipitationSumIn
2013-2-1,61.4,44.9,30.1,35.0,30.8,26.0,88,61,34,30.32,30.22,8,2,12,0.00
2013-2-2,58.1,50.3,38.1,42.0,33.3,30.0,81,54,36,30.33,30.23,10,2,11,0.03
2013-2-3,61.7,50.4,38.4,42.0,33.4,21.0,90,57,28,30.22,30.07,16,4,20,0.00
2013-2-4,64.1,46.3,30.1,31.0,27.4,25.0,84,52,23,30.18,30.05,7,2,10,0.00
2013-2-5,63.7,47.8,29.8,41.0,32.5,25.0,89,59,26,30.11,29.96,19,5,36,0.00
2013-2-6,59.1,46.6,31.9,39.0,17.5,-2.0,83,40,9,30.13,29.99,20,5,35,0.00
2013-2-7,54.4,41.6,27.0,39.0,27.9,9.0,85,60,38,30.15,29.97,16,4,22,0.00
2013-2-8,39.2,33.4,29.1,35.0,28.7,23.0,92,83,67,29.97,29.86,14,3,23,0.03
2013-2-9,45.5,35.4,30.5,30.0,26.9,23.0,86,72,54,30.14,29.97,17,5,25,0.25
2013-2-10,48.0,36.9,28.0,33.0,29.1,24.0,92,75,48,30.14,30.02,13,4,16,0.00
2013-2-11,47.5,34.3,24.8,25.0,18.1,9.0,91,57,22,30.35,30.13,8,2,15,0.00
2013-2-12,52.9,36.7,21.0,22.0,15.5,10.0,78,47,21,30.47,30.35,5,1,9,0.00
2013-2-13,57.5,39.3,24.5,27.0,20.6,16.0,87,54,20,30.40,30.25,13,2,13,0.00
2013-2-14,62.0,46.5,30.1,27.0,22.5,20.0,72,41,21,30.33,30.21,11,3,20,0.00
2013-2-15,62.9,51.7,43.4,25.0,20.5,16.0,43,31,17,30.33,30.26,18,6,22,0.00
2013-2-16,61.6,48.0,30.8,21.0,18.0,16.0,65,32,18,30.31,30.05,11,2,11,0.00
2013-2-17,60.2,48.6,31.0,31.0,22.6,17.0,63,38,23,30.04,29.94,14,3,23,0.00
2013-2-18,57.4,44.4,30.6,39.0,30.5,21.0,86,62,31,30.04,29.91,20,6,30,0.00
2013-2-19,41.1,37.0,30.2,36.0,33.1,26.0,92,86,76,29.93,29.71,25,8,31,0.23
2013-2-20,38.3,32.6,27.1,27.0,25.3,24.0,90,75,59,30.08,29.69,31,12,47,0.02
2013-2-21,47.5,38.4,32.8,30.0,25.8,17.0,76,62,30,30.18,30.05,17,6,29,0.00
2013-2-22,56.6,40.0,22.8,32.0,24.2,20.0,88,57,30,30.29,30.18,7,2,17,0.00
2013-2-23,53.7,44.4,35.1,34.0,28.6,21.0,70,55,40,30.21,29.96,25,8,39,0.00
2013-2-24,49.7,39.4,29.8,29.0,9.3,1.0,70,31,16,30.31,30.10,17,6,23,0.00
2013-2-25,62.0,43.2,22.8,22.0,14.2,5.0,66,34,17,30.33,30.13,24,3,24,0.00
2013-2-26,56.9,47.4,39.3,26.0,18.1,10.0,55,33,18,30.22,30.07,20,6,26,0.00
2013-2-27,55.9,43.8,32.5,13.0,10.2,6.0,41,26,16,30.41,30.23,9,3,15,0.00
2013-2-28,62.0,46.6,27.3,22.0,13.4,8.0,65,30,12,30.48,30.39,8,2,11,0.00